Regional Weather Roundup
Issued by NWS

Home | Current Version | Previous Version | Text Only | Print | Product List | Glossary Off
Versions: 1 2 3 4 5 6 7 8 9 10 11 12 13 14 15 16 17 18 19 20 21 22 23 24 25 26 27 28 29 30 31 32 33 34 35 36 37 38 39 40 41 42 43 44 45 46 47 48 49 50

000
ASUS43 KOAX 301302
RWRNE

WEATHER ROUNDUP FOR NEBRASKA
NATIONAL WEATHER SERVICE OMAHA NE
800 AM CDT SAT AUG 30 2014

NOTES: SATELLITE DATA IS BEING USED TO AUGMENT CLOUD COVER ABOVE
       12000 FEET.
       "FAIR" INDICATES FEW OR NO CLOUDS BELOW 12,000 FEET WITH NO
       SIGNIFICANT WEATHER AND/OR OBSTRUCTIONS TO VISIBILITY.

  * THESE STATIONS DO NOT REPORT WEATHER SUCH AS RAIN...SNOW OR FOG.

NEZ001>004-019>022-054>056-301400-
NEBRASKA PANHANDLE

CITY           SKY/WX    TMP DP  RH WIND       PRES   REMARKS
SCOTTSBLUFF    PTCLDY    56  54  93 E7        30.01S
ALLIANCE       CLEAR     54  52  93 S5        30.01S
CHADRON        CLEAR     52  50  93 CALM      29.94F
KIMBALL        CLEAR     53  50  92 S5        30.05S
SIDNEY         PTCLDY    57  54  89 SW8       30.06R
$$

NEZ057>060-069>072-079>082-301400-
SOUTHWEST NEBRASKA

CITY           SKY/WX    TMP DP  RH WIND       PRES   REMARKS
NORTH PLATTE   CLEAR     57  55  93 CALM      30.02S
IMPERIAL       CLEAR     58  56  93 CALM      30.03S
LEXINGTON      CLEAR     58  56  96 CALM      30.02S
MCCOOK         CLEAR     59  58  96 CALM      30.02R
OGALLALA       FOG       52  52  99 CALM      30.04R VSB 1/4
$$

NEZ005>010-023>029-035>040-094-301400-
NORTH CENTRAL NEBRASKA

CITY           SKY/WX    TMP DP  RH WIND       PRES   REMARKS
VALENTINE      FOG       57  57 100 SE3       30.01S VSB 1/4
AINSWORTH      FOG       56  56 100 CALM      30.01S VSB 1/4
BROKEN BOW     CLEAR     56  54  93 CALM      30.02R
O`NEILL        CLOUDY    60  59  98 CALM      30.00R
ORD            CLOUDY    58  57  97 CALM      30.00R
THEDFORD       CLEAR     54  53  97 CALM      30.03S
$$

NEZ041-046>049-061>064-073>077-083>087-301400-
SOUTH CENTRAL NEBRASKA

CITY           SKY/WX    TMP DP  RH WIND       PRES   REMARKS
GRAND ISLAND   SUNNY     62  58  86 NW5       30.00R
AURORA         SUNNY     60  60 100 NW3       29.99R
HASTINGS       SUNNY     62  57  83 N3        30.00R
HEBRON         SUNNY     62  58  88 CALM      29.98R
HOLDREGE       CLEAR     59  57  94 CALM      30.00F
KEARNEY *      SUNNY     59  55  88 N6        30.01S
$$

NEZ011>018-030>034-042>045-301400-
NORTHEAST NEBRASKA

CITY           SKY/WX    TMP DP  RH WIND       PRES   REMARKS
NORFOLK        MOSUNNY   62  59  90 NW7       29.97R
ALBION         CLOUDY    60  57  89 N3        29.99R
BLAIR          CLOUDY    64  62  93 NW5       29.93S FOG
FREMONT        CLOUDY    64  62  94 W6        29.94S
TEKAMAH        CLOUDY    66  65  96 NW6       29.93R FOG
WAYNE          CLOUDY    61  59  94 NW7       29.97R
$$

NEZ050>053-065>068-078-088>093-301400-
SOUTHEAST NEBRASKA

CITY           SKY/WX    TMP DP  RH WIND       PRES   REMARKS
LINCOLN        SUNNY     65  61  87 NW5       29.96R
OMAHA EPPLEY   MOSUNNY   65  62  90 NW7       29.92S
BEATRICE       SUNNY     62  62 100 W3        29.96R
FALLS CITY     SUNNY     68  66  93 W6        29.92R
NEBRASKA CITY  SUNNY     65  65 100 NW7       29.94R
PLATTSMOUTH    SUNNY     65  63  93 CALM      29.93R
$$

NEZ044-045-051>053-067-301400-
OMAHA AREA

CITY           SKY/WX    TMP DP  RH WIND       PRES   REMARKS
OMAHA EPPLEY   MOSUNNY   65  62  90 NW7       29.92S
BLAIR          CLOUDY    64  62  93 NW5       29.93S FOG
FREMONT        CLOUDY    64  62  94 W6        29.94S
MILLARD        SUNNY     66  63  89 NW8       29.93R
OFFUTT AFB     SUNNY     65  65 100 W6        29.92R
PLATTSMOUTH    SUNNY     65  63  93 CALM      29.93R
WAHOO          FAIR      65  61  88 NW7       29.95R
$$


USA.gov is the U.S. government's official web portal to all federal, state and local government web resources and services.